Regional Weather Roundup
Issued by NWS Albany, NY

Home | Current Version | Previous Version | Graphics & Text | Print | Product List | Glossary Off
Versions: 1 2 3 4 5 6 7 8 9 10 11 12 13 14 15 16 17 18 19 20 21 22 23 24 25 26 27 28

000
ASUS41 KALY 250610
RWRALY

NEW YORK STATE HOURLY WEATHER ROUNDUP
NATIONAL WEATHER SERVICE ALBANY NY
200 AM EDT SAT OCT 25 2014

NOTE: "FAIR" INDICATES FEW OR NO CLOUDS BELOW 12,000 FEET WITH NO
SIGNIFICANT WEATHER AND/OR NO OBSTRUCTIONS TO VISIBILITY.

NYZ032-033-038>043-046>054-057>066-NYZ062>081-250700-
EAST


CITY           SKY/WX    TMP DP  RH WIND       PRES   REMARKS
ALBANY         PTCLDY    41  39  93 CALM      29.84F
GLENS FALLS    CLOUDY    42  42 100 CALM      29.82F FOG
POUGHKEEPSIE   CLEAR     40  38  93 CALM      29.86R
MONTGOMERY     CLEAR     50  33  52 NW8       29.85R
WHITE PLAINS   CLEAR     47  43  86 NW5       29.83R
ISLIP          CLEAR     51  45  79 NW10      29.81S
NEW YORK CITY  MOCLDY    56  37  49 NW13      29.85R
CENTRAL PARK   CLEAR     55  35  47 NW6       29.88R
$$

NYZ005>009-017-018-044>046-055-056-250700-
CENTRAL


CITY           SKY/WX    TMP DP  RH WIND       PRES   REMARKS
FULTON         CLEAR     44  39  82 SW6       29.88F
SYRACUSE       PTCLDY    48  42  80 W12       29.88F
ROME           MOCLDY    39  37  92 CALM      29.89F
ELMIRA         CLEAR     41  33  73 W10       29.91F
BINGHAMTON     CLEAR     42  32  67 W6        29.89S
MONTICELLO     FAIR      43  34  70 W6        29.88F
$$

NYZ026>034-041>043-250700-
NORTH


CITY           SKY/WX    TMP DP  RH WIND       PRES   REMARKS
WATERTOWN      PTCLDY    45  39  79 SW3       29.85F
FORT DRUM      NOT AVBL
MASSENA        CLEAR     46  43  89 SW9       29.81F
SARANAC LAKE   MOCLDY    33  32  96 S5        29.80F FOG     WCI  29
PLATTSBURGH    CLEAR     40  39  97 S3        29.77F
$$

NYZ001>004-010>016-019>021-250700-
WEST


CITY           SKY/WX    TMP DP  RH WIND       PRES   REMARKS
NIAGARA FALLS  CLOUDY    52  45  77 SW8       29.90F
BUFFALO        CLOUDY    51  47  86 SW7       29.91F
DUNKIRK        CLOUDY    52  46  80 SW7       29.93F
JAMESTOWN      CLOUDY    46  39  76 SW7       29.95F
WELLSVILLE     CLOUDY    46  37  71 W7        29.94F
ROCHESTER      CLOUDY    47  44  90 W5        29.91S
PENN YAN       PTCLDY    48  41  76 SW8       29.90F
$$

             KEY
       WCI = WIND CHILL INDEX
       VSB = VISIBILITY
       HX  = HEAT INDEX
$$



USA.gov is the U.S. government's official web portal to all federal, state and local government web resources and services.